Location: Cabeza de los Veneras
(40.2000°N, 5.2000°W)
Time: 02:32:29
(UTC+00:00)

NOSS 3-1 (C) - Pass Details

Date: 18 April 2024
Orbit: 652 x 1553 km, 63.4° (Epoch: 15 May)

Event Time Altitude Azimuth Distance (km) Brightness Sun altitude
Rises 20:02:00 0° 233° (SW) 3,008 6.5 -11.4°
Reaches altitude 10° 20:04:17 10° 241° (WSW) 2,148 5.8 -11.8°
Maximum altitude 20:08:52 43° 313° (NW) 1,073 4.3 -12.5°
Drops below altitude 10° 20:14:19 10° 24° (NNE) 2,543 5.7 -13.5°
Sets 20:17:13 0° 31° (NNE) 3,632 6.5 -14.0°
